| time (UTC) | temp F | wind direction | speed MPH | gust MPH | rain 1hr in | rain 24hr in | rain mn in | humidity % | barometer mb |
| 20260506122905 | 69 | 125 | 2.0 | 6.0 | 0.00 | 0.00 | 0.00 | 43 | 1013.6 |
| 20260506122405 | 69 | 345 | 3.0 | 7.0 | 0.00 | 0.00 | 0.00 | 41 | 1013.6 |
| 20260506121904 | 70 | 265 | 2.0 | 8.0 | 0.00 | 0.00 | 0.00 | 41 | 1013.6 |
| 20260506121405 | 69 | 103 | 1.0 | 3.0 | 0.00 | 0.00 | 0.00 | 41 | 1013.7 |
| 20260506120904 | 69 | 105 | 1.0 | 6.0 | 0.00 | 0.00 | 0.00 | 42 | 1013.9 |
| 20260506120405 | 70 | 221 | 6.0 | 10.0 | 0.00 | 0.00 | 0.00 | 41 | 1014.0 |
| 20260506115905 | 70 | 89 | 1.0 | 7.0 | 0.00 | 0.00 | 0.00 | 43 | 1014.0 |
| 20260506115405 | 70 | 83 | 1.0 | 10.0 | 0.00 | 0.00 | 0.00 | 44 | 1014.1 |
| 20260506114905 | 68 | 231 | 4.0 | 7.0 | 0.00 | 0.00 | 0.00 | 45 | 1014.2 |
| 20260506114405 | 68 | 209 | 1.0 | 10.0 | 0.00 | 0.00 | 0.00 | 42 | 1014.3 |
| 20260506113905 | 67 | 313 | 1.0 | 6.0 | 0.00 | 0.00 | 0.00 | 44 | 1014.2 |
| 20260506113405 | 69 | 216 | 6.0 | 8.0 | 0.00 | 0.00 | 0.00 | 42 | 1014.3 |
| 20260506112905 | 69 | 184 | 2.0 | 7.0 | 0.00 | 0.00 | 0.00 | 41 | 1014.3 |
| 20260506111405 | 67 | 278 | 2.0 | 6.0 | 0.00 | 0.00 | 0.00 | 45 | 1014.5 |
| 20260506110905 | 67 | 187 | 0.0 | 7.0 | 0.00 | 0.00 | 0.00 | 45 | 1014.6 |
| 20260506110405 | 67 | 170 | 1.0 | 7.0 | 0.00 | 0.00 | 0.00 | 45 | 1014.6 |
| 20260506105905 | 67 | 249 | 0.0 | 8.0 | 0.00 | 0.00 | 0.00 | 47 | 1014.6 |
| 20260506105405 | 68 | 251 | 1.0 | 5.0 | 0.00 | 0.00 | 0.00 | 45 | 1014.6 |
| 20260506104905 | 68 | 167 | 5.0 | 10.0 | 0.00 | 0.00 | 0.00 | 44 | 1014.6 |
| 20260506104405 | 68 | 348 | 0.0 | 9.0 | 0.00 | 0.00 | 0.00 | 44 | 1014.6 |
| 20260506103905 | 68 | 149 | 1.0 | 9.0 | 0.00 | 0.00 | 0.00 | 45 | 1014.7 |
| 20260506103405 | 69 | 128 | 0.0 | 5.0 | 0.00 | 0.00 | 0.00 | 44 | 1014.7 |
| 20260506102905 | 69 | 120 | 1.0 | 6.0 | 0.00 | 0.00 | 0.00 | 45 | 1014.8 |
| 20260506102405 | 67 | 68 | 0.0 | 7.0 | 0.00 | 0.00 | 0.00 | 48 | 1014.8 |
| 20260506101905 | 67 | 113 | 2.0 | 7.0 | 0.00 | 0.00 | 0.00 | 49 | 1014.8 |
| 20260506100905 | 66 | 298 | 1.0 | 5.0 | 0.00 | 0.00 | 0.00 | 51 | 1014.8 |
| 20260506100405 | 67 | 297 | 0.0 | 1.0 | 0.00 | 0.00 | 0.00 | 51 | 1014.8 |
| 20260506095905 | 66 | 86 | 1.0 | 6.0 | 0.00 | 0.00 | 0.00 | 52 | 1014.8 |
| 20260506095405 | 67 | 150 | 1.0 | 8.0 | 0.00 | 0.00 | 0.00 | 52 | 1014.9 |
| 20260506094905 | 67 | 119 | 1.0 | 8.0 | 0.00 | 0.00 | 0.00 | 53 | 1014.9 |
| 20260506094405 | 66 | 83 | 3.0 | 7.0 | 0.00 | 0.00 | 0.00 | 54 | 1014.8 |
| 20260506093904 | 65 | 203 | 1.0 | 5.0 | 0.00 | 0.00 | 0.00 | 55 | 1014.8 |
| 20260506093405 | 66 | 152 | 1.0 | 8.0 | 0.00 | 0.00 | 0.00 | 56 | 1014.8 |
| 20260506092905 | 65 | 161 | 0.0 | 5.0 | 0.00 | 0.00 | 0.00 | 58 | 1014.9 |
| 20260506092405 | 65 | 170 | 3.0 | 8.0 | 0.00 | 0.00 | 0.00 | 57 | 1015.0 |
| 20260506091905 | 64 | 221 | 1.0 | 6.0 | 0.00 | 0.00 | 0.00 | 57 | 1014.9 |
| 20260506091405 | 64 | 126 | 1.0 | 6.0 | 0.00 | 0.00 | 0.00 | 60 | 1015.0 |
| 20260506090905 | 64 | 145 | 1.0 | 9.0 | 0.00 | 0.00 | 0.00 | 61 | 1015.0 |
| 20260506090405 | 64 | 108 | 1.0 | 9.0 | 0.00 | 0.00 | 0.00 | 63 | 1015.0 |
| 20260506085905 | 64 | 110 | 1.0 | 7.0 | 0.00 | 0.00 | 0.00 | 62 | 1015.1 |
| 20260506085405 | 63 | 111 | 0.0 | 7.0 | 0.00 | 0.00 | 0.00 | 64 | 1015.1 |
| 20260506084904 | 62 | 92 | 0.0 | 6.0 | 0.00 | 0.00 | 0.00 | 66 | 1015.1 |
| 20260506084405 | 62 | 90 | 1.0 | 7.0 | 0.00 | 0.00 | 0.00 | 69 | 1015.1 |
| 20260506083905 | 61 | 129 | 1.0 | 9.0 | 0.00 | 0.00 | 0.00 | 70 | 1015.1 |
| 20260506083405 | 61 | 80 | 1.0 | 6.0 | 0.00 | 0.00 | 0.00 | 71 | 1015.2 |
| 20260506082905 | 60 | 131 | 2.0 | 7.0 | 0.00 | 0.00 | 0.00 | 72 | 1015.2 |
| 20260506081905 | 60 | 180 | 0.0 | 5.0 | 0.00 | 0.00 | 0.00 | 72 | 1015.2 |
| 20260506080405 | 58 | 116 | 1.0 | 7.0 | 0.00 | 0.00 | 0.00 | 76 | 1015.0 |
| 20260506073405 | 56 | 140 | 0.0 | 5.0 | 0.00 | 0.00 | 0.00 | 83 | 1015.2 |
| 20260506072905 | 55 | 41 | 0.0 | 0.0 | 0.00 | 0.00 | 0.00 | 85 | 1015.2 |
| 20260506072404 | 55 | 41 | 0.0 | 0.0 | 0.00 | 0.00 | 0.00 | 86 | 1015.2 |
| 20260506071905 | 54 | 41 | 0.0 | 0.0 | 0.00 | 0.00 | 0.00 | 87 | 1015.2 |
| 20260506071405 | 54 | 41 | 0.0 | 0.0 | 0.00 | 0.00 | 0.00 | 88 | 1015.2 |
| 20260506070905 | 53 | 41 | 0.0 | 0.0 | 0.00 | 0.00 | 0.00 | 88 | 1015.2 |
| 20260506070405 | 53 | 82 | 0.0 | 0.0 | 0.00 | 0.00 | 0.00 | 89 | 1015.2 |
| 20260506062405 | 51 | 82 | 0.0 | 1.0 | 0.00 | 0.00 | 0.00 | 92 | 1015.0 |
| 20260506061905 | 51 | 82 | 0.0 | 0.0 | 0.00 | 0.00 | 0.00 | 92 | 1014.9 |
| 20260506061405 | 51 | 82 | 0.0 | 0.0 | 0.00 | 0.00 | 0.00 | 92 | 1015.0 |
| 20260506060905 | 51 | 82 | 0.0 | 0.0 | 0.00 | 0.00 | 0.00 | 92 | 1014.9 |
| 20260506060405 | 51 | 82 | 0.0 | 1.0 | 0.00 | 0.00 | 0.00 | 92 | 1014.8 |
| 20260506050404 | 51 | 136 | 0.0 | 2.0 | 0.00 | 0.00 | 0.00 | 91 | 1014.8 |
| 20260506044904 | 51 | 136 | 0.0 | 0.0 | 0.00 | 0.00 | 0.00 | 90 | 1014.8 |
| 20260506044405 | 51 | 136 | 0.0 | 0.0 | 0.00 | 0.00 | 0.00 | 90 | 1014.7 |
| 20260506043904 | 51 | 136 | 0.0 | 0.0 | 0.00 | 0.00 | 0.00 | 90 | 1014.6 |
| 20260506043404 | 51 | 136 | 0.0 | 0.0 | 0.00 | 0.00 | 0.00 | 89 | 1014.7 |
| 20260506042905 | 51 | 136 | 0.0 | 1.0 | 0.00 | 0.00 | 0.00 | 89 | 1014.8 |
| 20260506042405 | 52 | 136 | 0.0 | 0.0 | 0.00 | 0.00 | 0.00 | 89 | 1014.7 |
| 20260506041905 | 52 | 136 | 0.0 | 3.0 | 0.00 | 0.00 | 0.00 | 89 | 1014.7 |
| 20260506040905 | 51 | 136 | 0.0 | 0.0 | 0.00 | 0.00 | 0.00 | 89 | 1014.8 |
| 20260506035904 | 51 | 136 | 0.0 | 0.0 | 0.00 | 0.00 | 0.00 | 88 | 1014.9 |
| 20260506034905 | 52 | 136 | 0.0 | 0.0 | 0.00 | 0.00 | 0.00 | 87 | 1014.9 |
| 20260506034404 | 52 | 136 | 0.0 | 0.0 | 0.00 | 0.00 | 0.00 | 87 | 1015.0 |
| 20260506033404 | 52 | 136 | 0.0 | 0.0 | 0.00 | 0.00 | 0.00 | 86 | 1014.9 |
| 20260506032904 | 52 | 136 | 0.0 | 0.0 | 0.00 | 0.00 | 0.00 | 86 | 1015.0 |
| 20260506032404 | 52 | 136 | 0.0 | 2.0 | 0.00 | 0.00 | 0.00 | 85 | 1015.1 |
| 20260506031904 | 53 | 136 | 0.0 | 3.0 | 0.00 | 0.00 | 0.00 | 85 | 1015.1 |
| 20260506030905 | 53 | 136 | 1.0 | 5.0 | 0.00 | 0.00 | 0.00 | 85 | 1015.2 |
| 20260506030405 | 53 | 136 | 0.0 | 1.0 | 0.00 | 0.00 | 0.00 | 85 | 1015.2 |
| 20260506025905 | 53 | 136 | 0.0 | 0.0 | 0.00 | 0.00 | 0.00 | 85 | 1015.2 |
| 20260506025404 | 53 | 136 | 0.0 | 0.0 | 0.00 | 0.00 | 0.00 | 85 | 1015.2 |
| 20260506024905 | 53 | 136 | 0.0 | 0.0 | 0.00 | 0.00 | 0.00 | 85 | 1015.2 |
| 20260506024405 | 53 | 136 | 0.0 | 0.0 | 0.00 | 0.00 | 0.00 | 84 | 1015.2 |
| 20260506022905 | 53 | 136 | 1.0 | 5.0 | 0.00 | 0.00 | 0.00 | 84 | 1015.3 |
| 20260506022404 | 53 | 173 | 2.0 | 5.0 | 0.00 | 0.00 | 0.00 | 84 | 1015.4 |
| 20260506020904 | 54 | 346 | 1.0 | 2.0 | 0.00 | 0.00 | 0.00 | 84 | 1015.4 |
| 20260506020404 | 54 | 139 | 0.0 | 3.0 | 0.00 | 0.00 | 0.00 | 84 | 1015.3 |
| 20260506015904 | 53 | 87 | 0.0 | 5.0 | 0.00 | 0.00 | 0.00 | 84 | 1015.4 |
| 20260506015404 | 53 | 140 | 1.0 | 5.0 | 0.00 | 0.00 | 0.00 | 84 | 1015.5 |
| 20260506014904 | 53 | 145 | 3.0 | 6.0 | 0.00 | 0.00 | 0.00 | 84 | 1015.6 |
| 20260506014405 | 53 | 76 | 0.0 | 0.0 | 0.00 | 0.00 | 0.00 | 84 | 1015.7 |
| 20260506013904 | 53 | 76 | 0.0 | 0.0 | 0.00 | 0.00 | 0.00 | 84 | 1015.7 |
| 20260506013404 | 53 | 76 | 0.0 | 0.0 | 0.00 | 0.00 | 0.00 | 84 | 1015.7 |
| 20260506012904 | 53 | 76 | 0.0 | 0.0 | 0.00 | 0.00 | 0.00 | 84 | 1015.7 |
| 20260506012404 | 53 | 76 | 0.0 | 0.0 | 0.00 | 0.00 | 0.00 | 83 | 1015.7 |
| 20260506011905 | 53 | 76 | 0.0 | 0.0 | 0.00 | 0.00 | 0.00 | 83 | 1015.7 |
| 20260506011404 | 53 | 76 | 0.0 | 2.0 | 0.00 | 0.00 | 0.00 | 83 | 1015.6 |
| 20260506010905 | 54 | 77 | 1.0 | 6.0 | 0.00 | 0.00 | 0.00 | 83 | 1015.7 |
| 20260506010405 | 54 | 46 | 0.0 | 1.0 | 0.00 | 0.00 | 0.00 | 83 | 1015.8 |
| 20260506005404 | 54 | 46 | 4.0 | 7.0 | 0.00 | 0.00 | 0.00 | 83 | 1015.8 |
| 20260506004905 | 54 | 46 | 3.0 | 6.0 | 0.00 | 0.00 | 0.00 | 83 | 1015.8 |
| 20260506003905 | 54 | 30 | 1.0 | 6.0 | 0.00 | 0.00 | 0.00 | 83 | 1016.1 |
| 20260506003404 | 54 | 294 | 0.0 | 1.0 | 0.00 | 0.00 | 0.00 | 83 | 1016.2 |
| 20260506002405 | 54 | 303 | 1.0 | 3.0 | 0.00 | 0.00 | 0.00 | 83 | 1016.4 |
| 20260506001904 | 54 | 78 | 0.0 | 6.0 | 0.00 | 0.00 | 0.00 | 83 | 1016.5 |
| 20260506001404 | 54 | 340 | 1.0 | 5.0 | 0.00 | 0.00 | 0.00 | 84 | 1016.6 |
| 20260506000405 | 54 | 86 | 2.0 | 7.0 | 0.00 | 0.00 | 0.00 | 83 | 1016.7 |
| 20260505235905 | 54 | 87 | 0.0 | 5.0 | 0.00 | 0.00 | 0.00 | 84 | 1016.8 |
| 20260505235404 | 54 | 103 | 0.0 | 5.0 | 0.00 | 0.00 | 0.00 | 84 | 1016.9 |
| 20260505234404 | 55 | 103 | 0.0 | 6.0 | 0.00 | 0.00 | 0.00 | 83 | 1016.9 |
| 20260505233905 | 55 | 66 | 1.0 | 6.0 | 0.00 | 0.00 | 0.00 | 83 | 1016.9 |
| 20260505233405 | 55 | 89 | 2.0 | 8.0 | 0.00 | 0.00 | 0.00 | 83 | 1016.9 |
| 20260505232905 | 55 | 51 | 0.0 | 2.0 | 0.00 | 0.00 | 0.00 | 83 | 1016.9 |
| 20260505232404 | 55 | 34 | 1.0 | 7.0 | 0.00 | 0.00 | 0.00 | 83 | 1016.9 |
| 20260505231905 | 55 | 344 | 2.0 | 9.0 | 0.00 | 0.00 | 0.00 | 83 | 1016.9 |
| 20260505231405 | 55 | 41 | 2.0 | 7.0 | 0.00 | 0.00 | 0.00 | 83 | 1017.0 |
| 20260505230904 | 55 | 114 | 5.0 | 12.0 | 0.00 | 0.00 | 0.00 | 83 | 1017.0 |
| 20260505230404 | 55 | 127 | 2.0 | 5.0 | 0.00 | 0.00 | 0.00 | 83 | 1017.0 |
| 20260505225905 | 55 | 75 | 1.0 | 3.0 | 0.00 | 0.00 | 0.00 | 83 | 1017.2 |
| 20260505225404 | 55 | 76 | 2.0 | 8.0 | 0.00 | 0.00 | 0.00 | 83 | 1017.3 |
| 20260505224905 | 55 | 74 | 0.0 | 2.0 | 0.00 | 0.00 | 0.00 | 83 | 1017.3 |
| 20260505224404 | 55 | 130 | 1.0 | 6.0 | 0.00 | 0.00 | 0.00 | 82 | 1017.4 |
| 20260505223904 | 55 | 68 | 1.0 | 7.0 | 0.00 | 0.00 | 0.00 | 82 | 1017.5 |
| 20260505223407 | 55 | 71 | 1.0 | 5.0 | 0.00 | 0.00 | 0.00 | 82 | 1017.5 |
| 20260505222904 | 56 | 88 | 1.0 | 6.0 | 0.00 | 0.00 | 0.00 | 81 | 1017.6 |
| 20260505222404 | 56 | 26 | 0.0 | 2.0 | 0.00 | 0.00 | 0.00 | 81 | 1017.7 |
| 20260505221404 | 56 | 43 | 1.0 | 3.0 | 0.00 | 0.00 | 0.00 | 81 | 1017.6 |
| 20260505220904 | 56 | 43 | 0.0 | 5.0 | 0.00 | 0.00 | 0.00 | 80 | 1017.7 |
| 20260505220404 | 56 | 57 | 0.0 | 0.0 | 0.00 | 0.00 | 0.00 | 80 | 1017.7 |
| 20260505215905 | 56 | 74 | 1.0 | 5.0 | 0.00 | 0.00 | 0.00 | 80 | 1017.7 |
| 20260505215404 | 56 | 31 | 0.0 | 1.0 | 0.00 | 0.00 | 0.00 | 79 | 1017.6 |
| 20260505214904 | 56 | 28 | 2.0 | 5.0 | 0.00 | 0.00 | 0.00 | 79 | 1017.6 |
| 20260505214405 | 56 | 0 | 1.0 | 6.0 | 0.00 | 0.00 | 0.00 | 79 | 1017.7 |
| 20260505213904 | 56 | 357 | 2.0 | 6.0 | 0.00 | 0.00 | 0.00 | 78 | 1017.7 |
| 20260505213405 | 57 | 178 | 2.0 | 13.0 | 0.00 | 0.00 | 0.00 | 78 | 1017.7 |
| 20260505212905 | 57 | 138 | 2.0 | 7.0 | 0.00 | 0.00 | 0.00 | 77 | 1017.7 |
| 20260505212404 | 57 | 188 | 2.0 | 8.0 | 0.00 | 0.00 | 0.00 | 77 | 1017.7 |
| 20260505211905 | 57 | 67 | 1.0 | 6.0 | 0.00 | 0.00 | 0.00 | 76 | 1017.7 |
| 20260505211405 | 57 | 88 | 1.0 | 5.0 | 0.00 | 0.00 | 0.00 | 76 | 1017.7 |
| 20260505210904 | 57 | 33 | 1.0 | 9.0 | 0.00 | 0.00 | 0.00 | 75 | 1017.7 |
| 20260505210404 | 57 | 41 | 1.0 | 6.0 | 0.00 | 0.00 | 0.00 | 75 | 1017.7 |
| 20260505205905 | 57 | 49 | 2.0 | 9.0 | 0.00 | 0.00 | 0.00 | 74 | 1017.6 |
| 20260505205404 | 58 | 60 | 1.0 | 5.0 | 0.00 | 0.00 | 0.00 | 73 | 1017.7 |
| 20260505204904 | 58 | 43 | 0.0 | 7.0 | 0.00 | 0.00 | 0.00 | 73 | 1017.6 |
| 20260505204404 | 58 | 38 | 3.0 | 7.0 | 0.00 | 0.00 | 0.00 | 73 | 1017.5 |
| 20260505203904 | 58 | 66 | 3.0 | 9.0 | 0.00 | 0.00 | 0.00 | 72 | 1017.5 |
| 20260505203404 | 58 | 76 | 1.0 | 12.0 | 0.00 | 0.00 | 0.00 | 71 | 1017.5 |
| 20260505202904 | 58 | 86 | 4.0 | 10.0 | 0.00 | 0.00 | 0.00 | 71 | 1017.5 |
| 20260505201904 | 59 | 77 | 2.0 | 8.0 | 0.00 | 0.00 | 0.00 | 70 | 1017.4 |
| 20260505201404 | 59 | 43 | 2.0 | 8.0 | 0.00 | 0.00 | 0.00 | 69 | 1017.4 |
| 20260505200905 | 59 | 150 | 2.0 | 8.0 | 0.00 | 0.00 | 0.00 | 69 | 1017.3 |
| 20260505200404 | 59 | 80 | 2.0 | 12.0 | 0.00 | 0.00 | 0.00 | 68 | 1017.3 |
| 20260505195904 | 59 | 51 | 3.0 | 12.0 | 0.00 | 0.00 | 0.00 | 68 | 1017.3 |
| 20260505194904 | 60 | 247 | 2.0 | 6.0 | 0.00 | 0.00 | 0.00 | 67 | 1017.1 |
| 20260505193904 | 60 | 85 | 6.0 | 12.0 | 0.00 | 0.00 | 0.00 | 66 | 1016.9 |
| 20260505193404 | 60 | 132 | 3.0 | 15.0 | 0.00 | 0.00 | 0.00 | 66 | 1016.9 |
| 20260505192405 | 61 | 90 | 3.0 | 8.0 | 0.00 | 0.00 | 0.00 | 64 | 1016.8 |
| 20260505191906 | 61 | 103 | 2.0 | 7.0 | 0.00 | 0.00 | 0.00 | 64 | 1016.7 |
| 20260505191405 | 61 | 81 | 2.0 | 7.0 | 0.00 | 0.00 | 0.00 | 63 | 1016.7 |
| 20260505190905 | 62 | 102 | 3.0 | 12.0 | 0.00 | 0.00 | 0.00 | 63 | 1016.7 |
| 20260505190405 | 62 | 90 | 5.0 | 10.0 | 0.00 | 0.00 | 0.00 | 62 | 1016.7 |
| 20260505185905 | 62 | 104 | 6.0 | 16.0 | 0.00 | 0.00 | 0.00 | 62 | 1016.8 |
| 20260505185406 | 62 | 159 | 6.0 | 12.0 | 0.00 | 0.00 | 0.00 | 61 | 1016.7 |
| 20260505184905 | 63 | 122 | 5.0 | 10.0 | 0.00 | 0.00 | 0.00 | 61 | 1016.7 |
| 20260505184405 | 63 | 134 | 5.0 | 12.0 | 0.00 | 0.00 | 0.00 | 60 | 1016.6 |
| 20260505183905 | 63 | 119 | 4.0 | 12.0 | 0.00 | 0.00 | 0.00 | 59 | 1016.5 |
| 20260505183405 | 64 | 159 | 4.0 | 10.0 | 0.00 | 0.00 | 0.00 | 58 | 1016.5 |
| 20260505182905 | 64 | 141 | 5.0 | 12.0 | 0.00 | 0.00 | 0.00 | 57 | 1016.4 |
| 20260505182405 | 64 | 128 | 4.0 | 12.0 | 0.00 | 0.00 | 0.00 | 56 | 1016.3 |
| 20260505181905 | 65 | 41 | 2.0 | 8.0 | 0.00 | 0.00 | 0.00 | 56 | 1016.3 |
| 20260505181405 | 65 | 47 | 1.0 | 6.0 | 0.00 | 0.00 | 0.00 | 57 | 1016.2 |
| 20260505180405 | 66 | 58 | 3.0 | 9.0 | 0.00 | 0.00 | 0.00 | 55 | 1016.3 |
| 20260505175905 | 66 | 79 | 2.0 | 9.0 | 0.00 | 0.00 | 0.00 | 56 | 1016.2 |
| 20260505175405 | 66 | 93 | 3.0 | 10.0 | 0.00 | 0.00 | 0.00 | 56 | 1016.3 |
| 20260505174905 | 66 | 129 | 4.0 | 12.0 | 0.00 | 0.00 | 0.00 | 55 | 1016.2 |
| 20260505174405 | 66 | 116 | 4.0 | 9.0 | 0.00 | 0.00 | 0.00 | 56 | 1016.2 |
| 20260505173905 | 66 | 87 | 3.0 | 13.0 | 0.00 | 0.00 | 0.00 | 56 | 1016.1 |
| 20260505173406 | 66 | 152 | 2.0 | 12.0 | 0.00 | 0.00 | 0.00 | 55 | 1016.2 |
| 20260505172905 | 66 | 97 | 3.0 | 20.0 | 0.00 | 0.00 | 0.00 | 54 | 1016.2 |
| 20260505172405 | 67 | 105 | 3.0 | 14.0 | 0.00 | 0.00 | 0.00 | 53 | 1016.2 |
| 20260505171905 | 67 | 131 | 6.0 | 12.0 | 0.00 | 0.00 | 0.00 | 53 | 1016.3 |
| 20260505165905 | 67 | 63 | 1.0 | 12.0 | 0.00 | 0.00 | 0.00 | 54 | 1016.2 |
| 20260505165405 | 67 | 106 | 5.0 | 12.0 | 0.00 | 0.00 | 0.00 | 54 | 1016.2 |
| 20260505164905 | 67 | 50 | 2.0 | 9.0 | 0.00 | 0.00 | 0.00 | 54 | 1016.2 |
| 20260505163905 | 67 | 131 | 2.0 | 8.0 | 0.00 | 0.00 | 0.00 | 53 | 1016.1 |
| 20260505163405 | 67 | 128 | 3.0 | 9.0 | 0.00 | 0.00 | 0.00 | 53 | 1016.2 |
| 20260505162405 | 67 | 98 | 1.0 | 10.0 | 0.00 | 0.00 | 0.00 | 53 | 1016.1 |
| 20260505161906 | 67 | 214 | 2.0 | 9.0 | 0.00 | 0.00 | 0.00 | 54 | 1016.1 |
| 20260505161405 | 67 | 67 | 3.0 | 9.0 | 0.00 | 0.00 | 0.00 | 54 | 1016.1 |
| 20260505160905 | 67 | 46 | 0.0 | 9.0 | 0.00 | 0.00 | 0.00 | 53 | 1016.2 |
| 20260505160406 | 68 | 121 | 3.0 | 10.0 | 0.00 | 0.00 | 0.00 | 53 | 1016.2 |
| 20260505152905 | 68 | 151 | 2.0 | 8.0 | 0.00 | 0.00 | 0.00 | 49 | 1016.4 |
| 20260505152405 | 69 | 177 | 3.0 | 8.0 | 0.00 | 0.00 | 0.00 | 48 | 1016.6 |
| 20260505151405 | 69 | 119 | 2.0 | 12.0 | 0.00 | 0.00 | 0.00 | 49 | 1016.5 |
| 20260505150905 | 68 | 140 | 6.0 | 14.0 | 0.00 | 0.00 | 0.00 | 50 | 1016.6 |
| 20260505150405 | 69 | 135 | 5.0 | 10.0 | 0.00 | 0.00 | 0.00 | 50 | 1016.6 |
| 20260505140405 | 67 | 56 | 0.0 | 13.0 | 0.00 | 0.00 | 0.00 | 53 | 1017.1 |
| 20260505124905 | 67 | 75 | 1.0 | 6.0 | 0.00 | 0.00 | 0.00 | 53 | 1017.6 |
| 20260505124405 | 67 | 121 | 5.0 | 9.0 | 0.00 | 0.00 | 0.00 | 50 | 1017.5 |
| 20260505123905 | 67 | 135 | 1.0 | 7.0 | 0.00 | 0.00 | 0.00 | 53 | 1017.6 |
| 20260505123405 | 66 | 136 | 3.0 | 10.0 | 0.00 | 0.00 | 0.00 | 54 | 1017.7 |